SCP
0 0 0 0 0 0 0 0 0 0 0 0 0 0 0 0 0 0 0 0 0 0 0 0 0 0 0 0 0 0 0 0 0 0 0 0 0 0 0 0 0 0 0
0 0 0 0 0 0 0 0 0 0 0 0 0 0 0 0 0 0 0 0 0 0 0 0 0 0 0 0 0 0 0 0 0 0 0 0 0 0 0 0 0 0 0
0 0 0 0 0 0 0 0 0 0 0 0 0 0 0 0 0 0 0 0 0 0 0 0 0 0 0 0 0 0 0 0 0 0 0 0 0 0 0 0 0 0 0
0 0 0 0 0 0 0 0 0 0 0 0 0 0 0 0 0 0 0 0 0 0 0 0 0 0 0 0 0 0 0 0 0 0 0 0 0 0 0 0 0 0 0
0 0 0 0 0 0 0 0 0 0 0 0 0 0 0 0 0 0 0 0 0 0 0 0 0 0 0 0 0 0 0 0 0 0 0 0 0 0 0 0 0 0 0
0 0 0 0 0 0 0 0 0 0 0 0 0 0 0 0 0 0 0 0 0 0 0 0 0 0 0 0 0 0 0 0 0 0 0 0 0 0 0 0 0 0 0
0 0 0 0 0 0 0 0 0 0 0 0 0 0 0 0 0 0 0 0 0 0 0 0 0 0 0 0 -0 0 0 0 0 0 0 0 0 0 0 0 0 0 0
0 0 0 0 0 0 0 0 0 0 0 0 0 0 0 0 0 0 0 0 0 0 0 0 0 0 0 0 0 0 0 0 0 0 0 0 0 0 0 0 0 0 0
0 0 0 0 0 0 0 0 0 0 0 0 0 0 0 0 0 0 0 0 0 0 0 0 0 0 0 0 0 0 0 0 0 0 0 0 0 0 0 0 0 0 0
0 0 0 0 0 0 0 0 0 0 0 0 0 0 0 0 0 0 0 0 0 0 0 0 0 0 0 0 0 0 0 0 0 0 0 0 0 0 0 0 0 0 0
0 0 0 0 0 0 0 0 0 0 0 0 0 0 0 0 0 0 0 0 0 0 0 0 0 0 0 0 0 0 0 0 0 0 0 0 0 0 0 0 0 0 0
0 0 0 0 0 0 0 0 0 0 0 0 0 0 0 0 0 0 0 0 0 0 0 0 0 0 0 0 0 0 0 0 0 0 0 0 0 0 0 0 0 0 0
0 0 0 0 0 0 0 0 0 0 0 0 0 0 0 0 0 0 0 0 0 0 0 0 0 0 0 0 0 0 0 0 0 0 0 0 0 0 0 0 0 0 0
0 0 0 0 0 0 0 0 0 0 0 0 0 0 0 0 0 0 0 0 0 0 0 0 0 0 0 0 0 0 0 0 0 0 0 0 0 0 0 0 0 0 0
0 0 0 0 0 0 0 0 0 0 0 0 0 0 0 0 0 0 0 0 0 0 0 0 0 0 0 0 0 0 0 0 0 0 0 0 0 0 0 0 0 0 0
0 0 0 0 0 0 0 0 0 0 0 0 0 0 0 0 0 0 0 0 0 0 0 0 0 0 0 0 0 0 0 0 0 0 0 0 0 0 0 0 0 0 0
0 0 0 0 0 0 0 0 0 0 0 0 0 0 0 0 0 0 0 0 0 0 0 0 0 0 0 0 0 0 0 0 0 0 0 0 0 0 0 0 0 0 0
0 0 0 0 0 0 0 0 0 0 0 0 0 0 0 0 0 0 0 0 0 0 0 0 0 0 0 0 0 0 0 0 0 0 0 0 0 0 0 0 0 0 0
0 0 0 0 0 0 0 0 0 0 0 0 0 0 0 0 0 0 0 0 0 0 0 0 0 0 0 0 0 0 0 0 0 0 0 0 0 0 0 0 0 0 0
0 0 0 0 0 0 0 0 0 0 0 0 0 0 0 0 0 0 0 0 0 0 0 0 0 0 0 0 0 0 0 0 0 0 0 0 0 0 0 0 0 -0 0
0 0 0 0 0 0 0 0 0 0 0 0 0 0 0 0 0 0 0 0 0 0 0 0 0 0 0 0 0 0 0 0 0 0 0 0 0 0 0 0 0 -0 0
0 0 0 0 0 0 0 0 0 0 0 0 0 0 0 0 0 0 0 0 0 0 0 0 0 0 0 0 0 0 0 0 0 0 0 0 0 0 0 0 0 0 -0
0 0 0 0 0 0 0 0 0 0 0 0 0 0 0 0 0 0 0 0 0 0 0 0 0 0 0 0 0 0 0 0 0 0 0 0 0 0 0 0 0 0 0
0 0 0 0 0 0 0 0 0 0 0 0 0 0 0 0 0 0 0 0 0 0 0 0 0 0 0 0 0 0 0 0 0 0 0 0 0 0 0 0 0 0 0
0 0 0 0 0 0 0 0 0 0 0 0 0 0 0 0 0 0 0 0 0 0 0 0 0 0 0 0 0 0 0 0 0 0 0 0 0 0 0 0 0 0 0
0 0 0 0 0 0 0 0 0 0 0 0 0 0 0 0 0 0 0 0 0 0 0 0 0 0 0 0 0 0 0 0 0 -0 0 0 0 0 -0 0 0 0 0
Wind_Speed_500mb
31 26 17 16 11 11 6 4 8 15 14 9 9 13 12 12 13 15 16 20 30 35 36 34 35 37 34 34 39 37 42 44 43 45 46 50 47 44 45 45 46 45 42
24 19 15 12 9 7 8 10 17 12 9 10 8 7 8 15 14 14 15 20 20 29 29 35 36 41 32 37 36 39 41 43 43 43 49 52 53 50 48 48 45 49 46
18 12 13 9 12 13 10 13 9 8 8 4 2 4 8 11 10 5 6 15 25 26 29 35 38 40 38 45 45 39 39 45 45 49 51 51 50 48 46 43 44 46 47
14 14 15 13 15 13 12 13 9 9 9 5 3 4 9 14 10 4 13 18 19 22 28 35 37 41 47 49 49 44 40 43 46 48 52 59 51 47 46 46 45 46 47
21 20 20 19 19 12 14 14 13 12 12 8 4 23 25 18 8 6 11 15 15 18 27 31 35 42 48 54 50 45 43 43 43 40 40 52 45 45 49 50 49 51 54
22 24 26 24 18 15 16 17 19 12 9 1 30 36 26 17 6 7 13 9 11 18 25 29 34 43 48 50 48 41 46 43 43 44 44 40 42 46 48 49 52 53 51
24 24 27 22 17 18 18 20 17 9 9 26 37 37 23 13 4 11 10 9 9 16 23 29 36 38 46 48 52 48 52 49 44 39 40 43 45 47 47 49 52 54 52
22 21 27 25 19 20 19 13 7 14 26 38 38 32 18 11 11 11 11 4 8 16 22 30 31 37 47 48 52 51 54 53 46 41 42 46 50 52 49 51 54 55 55
22 21 20 18 19 19 9 8 11 13 21 35 37 14 11 11 14 9 6 1 10 17 24 27 29 37 46 49 53 52 53 49 49 47 46 50 51 50 52 55 57 60 58
23 22 21 19 15 10 9 9 11 11 9 11 20 35 19 13 15 11 9 2 8 17 21 21 29 37 47 52 52 50 47 47 49 49 50 52 52 51 53 53 58 61 61
26 24 21 18 14 11 10 10 10 9 8 8 12 17 14 13 9 8 6 4 6 13 16 21 32 40 49 50 47 49 43 48 50 50 51 52 52 50 52 58 62 61 63
27 24 22 20 16 11 12 11 11 11 10 13 12 11 9 9 12 12 8 9 8 10 13 27 32 46 45 44 42 45 45 45 48 50 53 53 52 52 61 65 60 63 64
30 26 22 18 15 14 14 14 16 16 16 15 14 14 12 11 12 11 14 16 14 13 12 24 31 43 42 41 42 46 45 42 45 49 52 53 52 55 66 70 67 67 69
28 27 24 21 18 17 17 19 20 21 18 16 17 14 10 10 12 14 17 20 19 9 15 27 28 37 39 41 44 44 44 43 45 47 50 49 52 58 66 68 70 71 79
31 29 25 23 20 20 21 23 23 22 18 15 15 10 7 10 13 16 19 19 19 12 13 23 31 34 31 39 45 42 43 45 46 48 50 48 52 58 62 70 73 77 84
34 31 28 26 24 25 27 24 23 24 19 19 14 8 7 9 13 16 18 17 15 12 11 21 27 31 32 40 50 42 42 45 51 55 48 50 56 59 62 75 82 81 87
37 32 30 29 28 31 29 27 27 24 21 17 13 5 7 12 17 20 17 15 14 13 14 18 27 34 41 43 48 52 45 45 54 54 49 49 54 57 64 76 83 82 89
38 35 33 32 32 32 31 27 27 24 17 12 6 6 12 19 21 20 14 13 14 17 19 24 34 37 42 46 52 57 57 44 55 59 48 50 53 56 64 77 82 82 86
41 41 38 37 36 34 32 28 24 18 14 9 3 9 16 22 23 20 16 15 15 12 15 23 29 32 37 45 53 58 59 50 54 63 49 52 54 58 67 76 80 81 79
44 44 42 40 38 37 33 27 22 18 13 6 5 14 19 21 23 18 15 15 14 14 14 20 25 30 35 42 46 60 62 61 55 64 56 48 51 57 63 73 78 78 76
44 43 45 43 39 33 32 28 22 16 11 7 8 17 23 25 25 22 18 15 13 16 14 19 25 31 34 44 47 56 56 56 56 66 55 53 55 58 65 68 74 77 78
45 49 45 42 40 35 30 25 18 14 11 5 8 17 21 24 24 24 18 14 16 15 17 21 32 36 34 40 42 56 54 53 53 61 61 65 51 53 59 68 72 75 75
50 48 46 42 37 33 30 24 18 13 9 3 12 17 19 18 18 17 14 13 17 15 13 22 32 36 41 40 44 56 48 51 43 57 63 62 70 56 56 61 66 71 76
53 51 45 42 38 35 31 27 20 13 6 4 13 17 18 18 15 13 8 9 11 11 15 21 28 32 29 27 38 41 41 38 39 53 61 58 68 48 55 55 56 64 71
54 47 45 43 41 39 32 26 19 11 5 5 12 15 15 17 20 16 10 7 8 11 14 18 24 22 13 23 36 35 40 48 52 55 57 51 63 58 49 59 54 58 64
49 46 47 48 45 39 31 24 16 7 3 5 9 10 13 17 22 20 14 13 13 17 16 16 17 16 13 27 36 33 33 37 46 39 56 51 61 62 48 59 55 60 62
Wind_Direction_500mb
170 161 159 161 145 164 212 254 313 326 310 332 327 312 330 0 52 53 42 22 7 352 359 7 18 16 17 14 2 0 357 353 355 353 350 346 346 339 334 334 331 330 329
175 175 174 155 201 194 241 288 301 296 304 327 311 332 35 55 52 50 33 353 343 353 11 22 19 17 21 11 5 355 353 353 354 352 351 350 351 350 346 339 333 328 325
176 192 181 190 210 224 260 301 282 288 349 48 344 358 42 87 74 73 1 3 360 7 22 22 16 16 11 4 360 358 357 356 345 346 345 347 346 347 347 339 331 328 325
188 198 212 229 228 239 274 291 269 280 297 354 24 106 118 132 130 54 21 5 357 14 18 15 11 10 5 2 2 3 359 348 345 345 340 339 342 347 344 343 337 328 323
202 217 226 228 240 240 273 284 267 288 277 319 122 138 140 134 113 21 357 2 16 16 17 12 9 5 0 358 1 7 0 347 353 345 332 335 345 347 345 341 336 329 324
216 224 230 221 233 251 277 274 284 276 272 69 140 141 136 118 98 25 2 21 31 20 11 11 6 359 358 3 2 8 358 357 349 344 343 346 348 346 346 343 340 332 326
226 223 207 212 241 269 275 276 275 224 146 144 149 140 132 122 64 26 55 76 28 8 2 6 355 356 2 5 6 3 360 1 5 2 1 357 349 349 345 344 340 339 332
212 209 216 235 254 259 274 268 202 174 157 157 160 161 139 114 84 64 118 83 5 357 355 1 357 359 3 4 2 0 1 1 1 359 355 350 347 340 338 334 334 338 338
213 212 220 229 242 260 242 208 183 191 175 185 177 193 185 202 155 99 136 285 349 349 354 358 354 356 0 0 360 359 359 358 356 356 354 351 343 336 332 332 329 332 330
212 221 232 244 243 210 210 201 205 191 197 187 186 216 234 209 192 186 176 32 352 352 350 357 347 355 357 359 357 358 356 352 350 348 349 348 348 342 339 337 333 330 329
218 222 233 231 206 203 198 190 201 195 201 194 156 131 128 128 128 179 167 248 311 357 4 346 353 355 358 3 5 7 359 354 351 349 350 351 352 350 347 342 339 335 333
214 214 213 207 200 195 191 192 188 185 175 158 149 150 134 113 92 63 46 3 350 357 347 339 351 359 4 8 6 4 354 349 350 349 353 357 355 350 354 353 351 346 341
205 204 202 199 198 192 185 181 171 159 151 142 134 130 106 80 49 26 17 9 342 312 301 341 349 5 11 8 4 4 356 348 348 351 357 1 358 355 356 356 353 349 342
202 199 199 195 192 183 174 171 161 155 145 146 142 121 95 53 21 360 353 352 347 291 317 328 1 13 15 14 5 6 0 354 356 355 0 359 360 359 358 353 349 348 349
203 197 193 191 184 175 164 164 163 154 155 151 141 128 93 39 8 348 342 340 342 323 323 344 359 9 10 16 11 9 3 6 4 4 2 359 359 356 353 354 355 354 353
200 196 188 190 181 173 163 161 155 161 161 146 135 130 67 29 2 341 336 333 341 329 339 343 1 1 12 18 16 8 6 7 8 7 0 360 2 0 355 1 4 0 359
194 189 188 187 179 168 162 162 152 159 159 150 144 119 39 13 351 343 341 345 352 350 357 4 6 11 14 15 14 13 6 10 13 9 6 2 4 360 3 8 7 5 5
184 189 185 179 173 167 162 163 161 163 153 152 150 60 12 359 355 352 2 353 354 353 5 10 9 12 14 11 13 10 13 13 22 14 11 12 7 2 12 13 10 10 14
186 186 184 178 172 162 156 159 164 164 150 148 45 27 8 1 2 7 3 2 355 357 360 7 10 9 8 8 8 8 9 19 21 19 9 17 16 17 16 15 12 14 17
185 182 177 175 169 161 164 167 164 160 150 130 11 8 8 5 7 5 7 0 2 1 2 5 1 6 6 10 10 5 5 10 16 17 13 20 17 20 21 19 14 17 19
178 179 174 173 173 169 167 163 164 159 141 105 353 8 4 2 3 3 7 356 5 5 14 6 9 2 8 12 9 360 5 4 15 8 17 22 23 24 21 22 14 18 22
176 178 174 177 172 171 170 164 174 164 143 97 12 15 7 0 3 2 6 7 7 18 15 7 5 6 4 3 6 5 5 10 6 5 9 22 19 24 26 24 15 18 21
175 171 174 176 173 174 171 171 176 170 140 73 15 12 14 11 10 11 22 9 5 11 13 2 359 359 2 3 3 2 18 19 19 11 10 19 21 31 33 24 19 18 26
173 172 173 178 177 181 178 174 173 182 173 39 7 6 14 18 16 27 5 333 1 16 3 359 346 354 358 3 1 10 11 14 27 22 13 11 15 26 36 24 20 18 23
176 173 179 184 188 188 183 179 180 172 170 27 7 4 13 16 29 34 3 334 328 336 353 345 339 3 9 355 357 2 17 16 25 23 20 18 10 15 29 23 20 20 27
178 180 184 194 190 191 186 182 183 174 183 16 3 5 19 19 26 28 26 25 23 23 15 3 4 27 13 5 8 13 11 13 22 26 23 25 21 20 17 30 28 22 26
Wind_Speed_850mb
31 26 17 16 11 11 6 4 8 15 14 9 9 13 12 12 13 15 16 20 30 35 36 34 35 37 34 34 39 37 42 44 43 45 46 50 47 44 45 45 46 45 42
24 19 15 12 9 7 8 10 17 12 9 10 8 7 8 15 14 14 15 20 20 29 29 35 36 41 32 37 36 39 41 43 43 43 49 52 53 50 48 48 45 49 46
18 12 13 9 12 13 10 13 9 8 8 4 2 4 8 11 10 5 6 15 25 26 29 35 38 40 38 45 45 39 39 45 45 49 51 51 50 48 46 43 44 46 47
14 14 15 13 15 13 12 13 9 9 9 5 3 4 9 14 10 4 13 18 19 22 28 35 37 41 47 49 49 44 40 43 46 48 52 59 51 47 46 46 45 46 47
21 20 20 19 19 12 14 14 13 12 12 8 4 23 25 18 8 6 11 15 15 18 27 31 35 42 48 54 50 45 43 43 43 40 40 52 45 45 49 50 49 51 54
22 24 26 24 18 15 16 17 19 12 9 1 30 36 26 17 6 7 13 9 11 18 25 29 34 43 48 50 48 41 46 43 43 44 44 40 42 46 48 49 52 53 51
24 24 27 22 17 18 18 20 17 9 9 26 37 37 23 13 4 11 10 9 9 16 23 29 36 38 46 48 52 48 52 49 44 39 40 43 45 47 47 49 52 54 52
22 21 27 25 19 20 19 13 7 14 26 38 38 32 18 11 11 11 11 4 8 16 22 30 31 37 47 48 52 51 54 53 46 41 42 46 50 52 49 51 54 55 55
22 21 20 18 19 19 9 8 11 13 21 35 37 14 11 11 14 9 6 1 10 17 24 27 29 37 46 49 53 52 53 49 49 47 46 50 51 50 52 55 57 60 58
23 22 21 19 15 10 9 9 11 11 9 11 20 35 19 13 15 11 9 2 8 17 21 21 29 37 47 52 52 50 47 47 49 49 50 52 52 51 53 53 58 61 61
26 24 21 18 14 11 10 10 10 9 8 8 12 17 14 13 9 8 6 4 6 13 16 21 32 40 49 50 47 49 43 48 50 50 51 52 52 50 52 58 62 61 63
27 24 22 20 16 11 12 11 11 11 10 13 12 11 9 9 12 12 8 9 8 10 13 27 32 46 45 44 42 45 45 45 48 50 53 53 52 52 61 65 60 63 64
30 26 22 18 15 14 14 14 16 16 16 15 14 14 12 11 12 11 14 16 14 13 12 24 31 43 42 41 42 46 45 42 45 49 52 53 52 55 66 70 67 67 69
28 27 24 21 18 17 17 19 20 21 18 16 17 14 10 10 12 14 17 20 19 9 15 27 28 37 39 41 44 44 44 43 45 47 50 49 52 58 66 68 70 71 79
31 29 25 23 20 20 21 23 23 22 18 15 15 10 7 10 13 16 19 19 19 12 13 23 31 34 31 39 45 42 43 45 46 48 50 48 52 58 62 70 73 77 84
34 31 28 26 24 25 27 24 23 24 19 19 14 8 7 9 13 16 18 17 15 12 11 21 27 31 32 40 50 42 42 45 51 55 48 50 56 59 62 75 82 81 87
37 32 30 29 28 31 29 27 27 24 21 17 13 5 7 12 17 20 17 15 14 13 14 18 27 34 41 43 48 52 45 45 54 54 49 49 54 57 64 76 83 82 89
38 35 33 32 32 32 31 27 27 24 17 12 6 6 12 19 21 20 14 13 14 17 19 24 34 37 42 46 52 57 57 44 55 59 48 50 53 56 64 77 82 82 86
41 41 38 37 36 34 32 28 24 18 14 9 3 9 16 22 23 20 16 15 15 12 15 23 29 32 37 45 53 58 59 50 54 63 49 52 54 58 67 76 80 81 79
44 44 42 40 38 37 33 27 22 18 13 6 5 14 19 21 23 18 15 15 14 14 14 20 25 30 35 42 46 60 62 61 55 64 56 48 51 57 63 73 78 78 76
44 43 45 43 39 33 32 28 22 16 11 7 8 17 23 25 25 22 18 15 13 16 14 19 25 31 34 44 47 56 56 56 56 66 55 53 55 58 65 68 74 77 78
45 49 45 42 40 35 30 25 18 14 11 5 8 17 21 24 24 24 18 14 16 15 17 21 32 36 34 40 42 56 54 53 53 61 61 65 51 53 59 68 72 75 75
50 48 46 42 37 33 30 24 18 13 9 3 12 17 19 18 18 17 14 13 17 15 13 22 32 36 41 40 44 56 48 51 43 57 63 62 70 56 56 61 66 71 76
53 51 45 42 38 35 31 27 20 13 6 4 13 17 18 18 15 13 8 9 11 11 15 21 28 32 29 27 38 41 41 38 39 53 61 58 68 48 55 55 56 64 71
54 47 45 43 41 39 32 26 19 11 5 5 12 15 15 17 20 16 10 7 8 11 14 18 24 22 13 23 36 35 40 48 52 55 57 51 63 58 49 59 54 58 64
49 46 47 48 45 39 31 24 16 7 3 5 9 10 13 17 22 20 14 13 13 17 16 16 17 16 13 27 36 33 33 37 46 39 56 51 61 62 48 59 55 60 62
Wind_Direction_850mb
170 161 159 161 145 164 212 254 313 326 310 332 327 312 330 0 52 53 42 22 7 352 359 7 18 16 17 14 2 0 357 353 355 353 350 346 346 339 334 334 331 330 329
175 175 174 155 201 194 241 288 301 296 304 327 311 332 35 55 52 50 33 353 343 353 11 22 19 17 21 11 5 355 353 353 354 352 351 350 351 350 346 339 333 328 325
176 192 181 190 210 224 260 301 282 288 349 48 344 358 42 87 74 73 1 3 360 7 22 22 16 16 11 4 360 358 357 356 345 346 345 347 346 347 347 339 331 328 325
188 198 212 229 228 239 274 291 269 280 297 354 24 106 118 132 130 54 21 5 357 14 18 15 11 10 5 2 2 3 359 348 345 345 340 339 342 347 344 343 337 328 323
202 217 226 228 240 240 273 284 267 288 277 319 122 138 140 134 113 21 357 2 16 16 17 12 9 5 0 358 1 7 0 347 353 345 332 335 345 347 345 341 336 329 324
216 224 230 221 233 251 277 274 284 276 272 69 140 141 136 118 98 25 2 21 31 20 11 11 6 359 358 3 2 8 358 357 349 344 343 346 348 346 346 343 340 332 326
226 223 207 212 241 269 275 276 275 224 146 144 149 140 132 122 64 26 55 76 28 8 2 6 355 356 2 5 6 3 360 1 5 2 1 357 349 349 345 344 340 339 332
212 209 216 235 254 259 274 268 202 174 157 157 160 161 139 114 84 64 118 83 5 357 355 1 357 359 3 4 2 0 1 1 1 359 355 350 347 340 338 334 334 338 338
213 212 220 229 242 260 242 208 183 191 175 185 177 193 185 202 155 99 136 285 349 349 354 358 354 356 0 0 360 359 359 358 356 356 354 351 343 336 332 332 329 332 330
212 221 232 244 243 210 210 201 205 191 197 187 186 216 234 209 192 186 176 32 352 352 350 357 347 355 357 359 357 358 356 352 350 348 349 348 348 342 339 337 333 330 329
218 222 233 231 206 203 198 190 201 195 201 194 156 131 128 128 128 179 167 248 311 357 4 346 353 355 358 3 5 7 359 354 351 349 350 351 352 350 347 342 339 335 333
214 214 213 207 200 195 191 192 188 185 175 158 149 150 134 113 92 63 46 3 350 357 347 339 351 359 4 8 6 4 354 349 350 349 353 357 355 350 354 353 351 346 341
205 204 202 199 198 192 185 181 171 159 151 142 134 130 106 80 49 26 17 9 342 312 301 341 349 5 11 8 4 4 356 348 348 351 357 1 358 355 356 356 353 349 342
202 199 199 195 192 183 174 171 161 155 145 146 142 121 95 53 21 360 353 352 347 291 317 328 1 13 15 14 5 6 0 354 356 355 0 359 360 359 358 353 349 348 349
203 197 193 191 184 175 164 164 163 154 155 151 141 128 93 39 8 348 342 340 342 323 323 344 359 9 10 16 11 9 3 6 4 4 2 359 359 356 353 354 355 354 353
200 196 188 190 181 173 163 161 155 161 161 146 135 130 67 29 2 341 336 333 341 329 339 343 1 1 12 18 16 8 6 7 8 7 0 360 2 0 355 1 4 0 359
194 189 188 187 179 168 162 162 152 159 159 150 144 119 39 13 351 343 341 345 352 350 357 4 6 11 14 15 14 13 6 10 13 9 6 2 4 360 3 8 7 5 5
184 189 185 179 173 167 162 163 161 163 153 152 150 60 12 359 355 352 2 353 354 353 5 10 9 12 14 11 13 10 13 13 22 14 11 12 7 2 12 13 10 10 14
186 186 184 178 172 162 156 159 164 164 150 148 45 27 8 1 2 7 3 2 355 357 360 7 10 9 8 8 8 8 9 19 21 19 9 17 16 17 16 15 12 14 17
185 182 177 175 169 161 164 167 164 160 150 130 11 8 8 5 7 5 7 0 2 1 2 5 1 6 6 10 10 5 5 10 16 17 13 20 17 20 21 19 14 17 19
178 179 174 173 173 169 167 163 164 159 141 105 353 8 4 2 3 3 7 356 5 5 14 6 9 2 8 12 9 360 5 4 15 8 17 22 23 24 21 22 14 18 22
176 178 174 177 172 171 170 164 174 164 143 97 12 15 7 0 3 2 6 7 7 18 15 7 5 6 4 3 6 5 5 10 6 5 9 22 19 24 26 24 15 18 21
175 171 174 176 173 174 171 171 176 170 140 73 15 12 14 11 10 11 22 9 5 11 13 2 359 359 2 3 3 2 18 19 19 11 10 19 21 31 33 24 19 18 26
173 172 173 178 177 181 178 174 173 182 173 39 7 6 14 18 16 27 5 333 1 16 3 359 346 354 358 3 1 10 11 14 27 22 13 11 15 26 36 24 20 18 23
176 173 179 184 188 188 183 179 180 172 170 27 7 4 13 16 29 34 3 334 328 336 353 345 339 3 9 355 357 2 17 16 25 23 20 18 10 15 29 23 20 20 27
178 180 184 194 190 191 186 182 183 174 183 16 3 5 19 19 26 28 26 25 23 23 15 3 4 27 13 5 8 13 11 13 22 26 23 25 21 20 17 30 28 22 26